GSAT0222 (GALILEO 26)

Last updated on Sun Sep 20 2026 00:02:47 GMT+0000 (Coordinated Universal Time)

1 43565U 18060B 26262.13813266 -.00000092 00000+0 00000+0 0 9996 2 43565 57.1349 339.2474 0006474 251.3713 108.6116 1.70475875 50810
UTC large
Height (km)
Speed (km/s)
/
Latitude / Longitude
Inclination (degrees)
Orbital Period (minutes)
Azimuth
Elevation
Range (km)
Doppler Factor

Next 0 passes for location: London (51.5072 / 0.1276)

No passes found over London.
GSAT0222 (GALILEO 26)